SCP
0 0 0 0 0 0 0 0 0 0 0 0 0 0 -0 -0 0 0 0 0 0 0 0 0 0 0 0 0 0 0 0 0 0 0 0 0 0 0 0 0 0 0 0 0 0 0 0
0 0 0 0 0 0 0 0 0 0 0 0 0 0 0 -0 0 0 0 0 0 0 0 0 0 0 0 0 0 0 0 0 0 0 0 0 0 0 0 0 0 0 0 0 0 0 0
0 0 0 0 0 0 0 0 0 0 0 0 0 0 0 0 0 0 0 0 0 0 0 0 0 0 0 0 0 0 0 0 0 0 0 0 0 0 0 0 0 0 0 0 0 0 0
0 0 0 -0 -0 0 0 0 0 0 0 0 0 0 0 0 0 0 0 0 0 0 0 0 0 0 0 -0 0 0 0 0 0 0 0 -0 0 0 0 0 0 0 0 0 0 0 0
0 0 -0 -0 -0 -0 -0 0 0 0 0 0 0 0 0 0 0 0 0 0 0 0 0 0 0 0 0 0 0 0 0 0 0 -0 -0 -0 0 0 0 0 0 0 0 0 0 0 0
0 -0 -0 0 0 -0 -0 -0 0 0 0 0 0 0 0 0 0 0 0 0 0 0 0 0 0 0 0 0 0 0 0 0 0 0 -0 0 -0 0 0 0 0 0 0 0 0 0 0
0 -0 -0 0 0 -0 -0 0 -0 0 0 0 0 0 0 0 0 0 0 0 0 -0 -0 0 0 0 0 0 0 0 0 0 0 0 0 -0 0 0 0 0 0 0 0 0 0 0 0
0 -0 0 -0 -0 -0 -0 0 0 0 -0 0 0 0 0 0 0 0 0 0 0 0 0 0 0 0 0 0 0 0 0 0 0 0 0 0 0 -0 0 0 0 0 0 0 0 0 0
0 0 0 0 -0 0 0 0 0 0 0 0 0 0 0 0 0 0 0 0 0 -0 -0 -0 0 0 0 0 0 0 0 0 0 0 0 0 0 0 0 0 0 0 0 0 0 0 0
0 0 0 -0 -0 -0 0 0 0 0 0 0 0 0 0 0 0 0 0 0 0 0 0 -0 0 0 0 0 0 0 0 0 0 0 0 0 0 0 0 0 0 0 0 0 0 0 0
0 0 0 -0 -0 0 -0 0 0 -0 -0 -0 -0 -0 -0 0 0 0 0 0 0 0 0 0 0 0 0 0 0 0 0 0 0 0 0 0 0 0 0 0 0 0 0 0 0 0 0
0 0 -0 -0 -0 -0 -0 0 -0 -0 -0 -0 -0 -0 -0 0 0 0 0 0 0 -0 0 0 0 0 0 0 0 0 0 0 0 0 0 0 0 0 0 0 0 0 0 0 0 0 0
0 0 -0 0 -0 -0 -0 -0 -0 -0 -0 -0 -0 -0 0 0 0 0 0 0 0 0 0 0 0 0 0 0 0 0 0 0 0 0 0 0 0 0 0 0 0 0 0 0 0 0 0
0 0 0 0 -0 -0 -0 -0 -0 -0 -0 -0 -0 -0 -0 0 0 0 0 0 0 0 0 0 0 0 0 0 0 0 0 0 0 0 0 0 0 0 0 0 0 0 0 0 0 0 0
-0 0 -0 -0 0 -0 -0 -0 -0 -0 -0 -0 -0 0 0 0 0 0 0 0 0 0 0 0 0 0 0 0 0 0 0 0 0 0 0 0 0 0 0 0 0 0 0 0 0 0 0
-0 -0 -0 -0 0 -0 -0 -0 -0 -0 -0 -0 0 0 0 -0 0 0 0 0 0 0 0 0 0 0 0 0 0 0 0 0 0 0 0 0 0 0 0 0 0 0 0 0 0 0 0
0 0 0 0 -0 -0 -0 -0 -0 -0 -0 0 0 0 0 -0 0 0 0 0 0 -0 0 0 0 0 0 0 0 0 0 0 0 0 0 0 0 0 0 0 0 0 0 0 0 0 0
0 0 0 0 -0 -0 0 -0 -0 0 0 0 0 -0 0 -0 0 0 0 0 0 -0 -0 0 0 0 0 0 0 0 0 0 0 0 0 0 0 0 0 0 0 0 0 0 0 0 0
0 0 0 0 0 -0 -0 0 0 0 0 0 0 0 -0 0 -0 0 0 0 0 0 0 0 0 0 0 0 0 0 0 0 0 0 0 0 0 0 0 0 0 0 0 0 0 0 0
-0 -0 -0 0 0 0 0 0 0 -0 -0 -0 0 0 0 0 -0 0 0 0 0 0 0 0 -0 -0 0 0 0 0 0 0 0 0 0 0 0 0 0 0 0 0 0 0 0 0 0
0 -0 -0 -0 0 -0 -0 -0 0 -0 0 -0 -0 -0 0 0 0 -0 0 0 0 0 0 0 0 0 0 0 0 0 0 0 0 0 0 0 0 0 0 0 0 0 0 0 0 0 0
0 -0 -0 -0 -0 -0 -0 -0 -0 0 -0 -0 -0 0 0 0 0 0 0 0 0 -0 0 0 0 0 0 0 0 0 0 0 0 0 0 0 0 0 0 0 0 0 0 0 0 0 0
0 -0 -0 -0 -0 -0 -0 -0 -0 0 -0 -0 -0 0 -0 0 0 0 0 0 0 0 0 0 0 0 0 0 0 0 0 0 0 0 0 0 0 0 0 0 0 0 0 0 0 0 0
0 -0 -0 -0 -0 -0 -0 -0 -0 -0 -0 -0 -0 -0 -0 0 0 0 0 0 0 0 0 0 0 0 0 0 0 0 0 0 0 0 0 0 0 0 0 0 0 0 0 0 0 0 0
-0 -0 -0 -0 -0 -0 -0 -0 -0 -0 -0 0 0 0 -0 -0 0 0 0 0 0 0 0 0 0 0 0 0 0 0 0 0 0 0 0 0 0 0 0 0 0 0 0 0 0 0 0
-0 -0 -0 -0 -0 -0 -0 -0 -0 -0 -0 0 0 0 0 0 0 0 0 0 0 0 0 0 0 0 0 0 0 0 0 0 0 0 0 0 0 0 0 0 0 0 0 0 0 0 0
-0 -0 -0 -0 -0 -0 -0 -0 0 0 -0 0 0 0 0 0 0 0 -0 -0 0 0 0 0 0 0 0 0 0 0 0 0 0 0 0 0 0 0 0 0 0 0 0 0 0 0 0
-0 -0 -0 -0 -0 -0 -0 -0 -0 0 -0 0 0 0 0 -0 0 0 -0 -0 -0 -0 0 0 0 0 0 0 0 0 0 0 0 0 0 0 0 0 0 0 0 0 0 0 0 0 0
-0 -0 0 0 -0 -0 -0 -0 0 -0 -0 -0 0 0 0 0 -0 0 0 0 -0 0 0 0 0 0 0 0 0 0 0 0 0 0 0 0 0 0 0 0 0 0 0 0 0 0 0
Wind_Speed_500mb
45 49 49 48 47 44 41 43 36 33 33 30 28 25 24 26 26 24 23 30 31 38 30 23 31 31 29 22 10 14 26 39 40 28 13 4 8 8 9 19 13 17 10 5 5 3 2
46 47 50 49 51 52 49 45 42 41 36 37 32 31 26 27 28 25 22 24 29 35 36 26 32 32 26 28 26 29 26 29 26 24 15 12 4 0 17 19 14 4 12 17 11 9 2
51 52 53 52 51 51 50 52 51 46 44 41 34 34 30 27 25 24 24 22 26 34 38 32 32 35 36 20 33 34 30 32 24 20 14 3 12 9 11 15 8 16 11 13 12 18 2
56 56 57 59 56 57 55 53 49 52 50 45 41 34 32 27 25 22 23 22 24 29 39 39 34 34 19 22 22 35 39 41 29 32 23 6 5 2 5 23 22 11 5 13 10 11 4
60 63 64 59 63 63 61 58 57 52 51 48 44 36 32 28 24 20 22 21 22 27 32 41 35 35 14 22 39 41 47 56 41 40 35 22 23 15 8 9 7 10 10 17 11 13 7
62 65 64 63 62 61 57 63 62 58 48 50 45 37 33 27 22 18 18 21 19 23 31 45 44 30 17 24 47 46 38 35 49 40 23 27 20 5 10 9 13 6 6 13 15 8 5
64 66 67 68 68 68 65 61 59 60 54 47 44 38 33 26 23 16 14 10 8 12 31 29 6 22 26 25 42 48 48 35 31 37 15 32 14 20 19 25 9 6 9 10 18 12 8
67 67 66 64 65 63 65 63 59 58 55 47 44 39 34 26 21 15 16 6 13 5 12 41 39 49 28 48 27 37 52 23 21 20 21 7 24 23 18 25 17 11 11 4 4 8 8
64 61 71 81 75 71 64 60 58 54 55 46 45 39 35 25 21 16 16 14 26 23 7 15 36 26 33 32 22 51 57 22 18 27 24 12 4 13 17 17 20 18 18 11 6 4 8
58 69 80 75 69 58 65 56 55 51 51 46 47 43 37 29 15 10 12 8 25 20 7 13 22 21 22 26 13 51 50 25 8 26 24 4 6 13 13 21 13 17 5 5 17 3 2
57 72 74 64 25 26 51 50 51 49 51 45 48 47 39 26 11 7 3 18 14 10 9 13 16 28 28 23 47 31 50 22 14 14 14 11 14 16 9 13 13 5 17 10 2 4 10
53 67 69 63 40 38 44 48 48 45 49 49 48 44 35 30 5 4 8 14 15 9 13 2 2 16 12 9 20 32 19 16 13 8 10 9 4 8 4 7 9 14 19 16 10 6 4
46 54 63 57 57 51 49 49 49 47 51 51 49 36 26 18 8 2 15 20 6 6 3 8 9 16 26 14 16 33 30 18 11 15 9 15 8 4 14 14 7 7 14 4 4 2 8
45 45 52 54 54 54 51 51 51 45 58 52 47 42 29 21 7 13 17 3 8 4 7 5 2 22 9 27 15 30 29 19 12 9 13 14 7 13 7 8 15 17 11 8 11 8 5
45 39 41 48 52 50 49 54 46 54 59 51 42 33 22 11 9 14 7 5 4 5 8 13 6 17 11 6 15 25 33 29 12 12 8 10 8 6 13 5 18 11 10 5 9 3 6
45 45 40 37 45 48 47 51 58 55 50 43 41 25 19 12 14 1 2 3 4 3 8 6 1 4 9 4 24 21 29 17 12 5 7 5 11 8 5 5 10 6 12 7 5 7 5
44 46 48 50 45 41 46 47 47 46 38 30 24 10 7 14 8 5 3 6 7 10 6 8 11 6 10 6 11 11 10 8 4 10 4 10 9 7 10 7 13 6 8 3 8 3 6
42 42 41 41 40 43 41 37 36 34 31 15 10 6 8 10 5 3 2 3 9 8 9 6 8 10 11 12 8 9 9 6 8 15 11 6 9 8 7 7 9 9 12 7 7 6 3
38 41 39 38 37 34 31 29 27 26 11 6 8 7 4 9 1 3 0 3 4 8 12 7 12 15 10 8 6 8 9 18 22 10 6 4 5 10 7 8 5 4 8 5 10 5 10
34 34 35 32 30 29 29 32 21 14 10 3 5 3 2 7 8 5 7 2 4 6 7 9 3 4 6 10 16 8 8 17 27 16 20 14 7 5 6 7 3 10 14 14 8 6 6
23 25 23 22 22 22 20 14 11 7 5 11 7 3 2 4 5 5 6 3 5 8 9 14 8 14 8 6 7 9 8 12 17 10 10 6 7 7 15 9 10 7 9 16 19 12 7
17 13 12 15 17 14 7 5 9 12 12 10 5 6 8 3 8 6 3 6 5 7 9 9 13 19 18 11 9 8 4 11 7 12 6 5 5 4 6 10 9 2 8 10 9 9 11
17 17 4 14 15 11 4 1 4 9 18 9 7 11 6 4 2 4 7 6 10 7 15 19 9 18 23 20 30 35 37 31 16 10 6 5 7 3 4 7 4 9 13 20 12 12 13
15 20 16 13 12 10 6 3 8 10 12 13 7 7 4 4 1 5 7 9 13 18 7 19 28 11 5 18 19 32 39 41 36 26 22 11 7 4 4 5 1 10 4 5 17 18 19
11 11 16 13 12 8 3 2 6 12 12 8 5 6 6 4 2 6 3 12 15 15 16 21 21 18 9 9 7 9 9 11 12 13 14 13 6 5 8 5 9 11 8 10 11 12 10
6 5 8 13 10 7 6 2 4 10 15 12 4 1 5 10 3 3 4 5 6 6 5 11 11 14 9 6 6 5 5 6 0 8 11 6 10 7 4 7 12 5 5 9 13 8 13
7 6 5 6 8 7 6 4 5 9 11 8 6 3 3 10 5 4 5 5 7 7 7 7 4 6 9 2 4 4 5 3 5 11 8 5 4 9 5 3 13 11 6 6 11 8 8
14 11 8 8 8 10 11 11 10 5 11 10 6 2 3 10 9 8 8 8 7 4 5 12 8 3 6 5 4 1 4 6 4 4 11 11 10 6 2 3 15 19 7 12 4 7 8
20 19 16 14 13 12 13 14 19 15 5 6 6 6 4 7 10 13 17 13 10 12 9 6 5 1 4 6 4 5 4 4 2 3 3 5 11 9 15 12 6 15 11 10 10 3 7
Wind_Direction_500mb
292 287 283 279 275 276 273 265 264 255 261 263 259 262 262 258 263 272 281 250 240 242 247 243 235 229 227 216 216 155 178 195 192 184 202 173 173 169 276 293 235 242 118 137 241 192 320
300 295 290 284 277 271 265 263 260 257 254 258 252 253 260 258 262 269 284 275 246 238 240 248 234 220 218 214 214 153 151 178 166 165 183 184 167 171 303 293 336 296 185 138 161 116 353
301 294 287 283 279 272 267 261 256 254 250 249 248 245 253 256 253 266 276 273 257 232 240 241 235 225 236 220 205 192 181 187 205 200 187 116 210 165 338 286 301 259 155 143 155 150 161
303 296 289 282 273 270 266 260 256 252 249 242 245 242 243 250 244 267 267 260 251 237 235 237 239 220 250 248 205 207 195 194 196 195 169 155 138 274 243 307 305 233 197 151 118 164 243
300 297 294 287 278 267 260 256 253 250 245 240 237 238 237 244 243 265 268 252 244 251 230 240 240 201 226 196 207 202 198 199 180 199 186 197 175 196 165 252 193 274 182 146 120 16 145
305 301 296 290 282 272 263 253 247 245 239 236 233 230 230 235 239 255 264 245 243 261 229 241 254 197 216 206 198 195 181 189 178 192 194 197 193 221 159 223 185 213 218 124 116 28 343
310 307 299 290 278 268 261 252 244 236 234 232 225 220 221 225 230 247 250 275 264 259 233 211 297 201 201 180 182 187 186 177 184 164 182 200 186 191 219 190 232 276 353 354 61 35 39
317 311 305 295 282 269 256 244 236 229 225 223 215 209 212 215 221 238 224 214 272 240 271 262 257 207 175 165 159 182 185 168 166 175 167 151 211 193 92 140 149 159 173 291 331 23 356
327 324 318 304 286 261 245 235 225 221 215 211 203 198 201 202 212 230 233 259 262 275 310 286 208 195 183 180 174 176 181 168 184 174 172 185 162 192 168 216 163 169 198 200 293 143 207
339 337 331 321 287 249 224 216 211 207 201 198 193 188 190 192 204 226 259 284 246 257 262 197 179 200 198 176 154 175 174 162 199 196 158 228 153 154 173 181 182 181 197 122 173 199 189
357 359 1 1 51 169 183 187 192 189 183 186 179 180 186 171 163 151 221 226 230 175 272 122 155 168 191 180 136 181 174 184 203 191 148 151 155 157 156 173 176 121 101 172 243 22 1
11 20 25 36 67 116 148 163 167 165 166 169 168 172 175 180 140 237 259 196 140 126 249 197 335 159 184 159 176 144 162 166 189 75 93 96 87 104 141 86 119 139 109 97 76 34 267
24 30 37 52 75 100 122 137 147 152 157 152 154 164 153 168 153 69 156 143 139 221 307 165 204 144 177 163 144 161 168 174 149 140 156 120 93 72 142 95 103 160 142 97 76 147 220
35 39 44 61 83 98 113 124 134 144 155 158 155 164 164 161 145 155 164 117 222 230 294 322 220 116 142 173 143 165 160 168 182 192 144 150 156 192 175 161 165 186 184 158 171 182 207
38 45 55 70 87 100 108 118 126 136 138 146 157 156 144 123 155 150 163 226 65 324 312 330 86 165 174 229 150 148 178 176 176 198 143 146 88 146 148 79 138 185 213 16 98 45 69
49 54 65 77 92 102 109 121 127 130 140 151 147 123 88 124 154 79 70 33 47 284 330 263 102 318 151 287 132 152 168 167 131 218 13 97 118 140 56 84 66 136 134 80 345 131 203
58 63 75 87 97 102 110 119 125 134 143 150 144 86 118 120 126 31 359 11 320 23 2 324 11 29 62 175 124 113 122 51 229 111 15 111 114 137 136 240 153 130 158 157 135 112 168
67 71 75 82 88 107 111 117 127 136 143 154 100 76 115 94 47 72 79 318 340 323 279 338 2 48 30 8 70 110 119 104 245 118 94 14 103 123 121 8 355 218 161 144 128 241 238
69 73 77 84 95 103 110 116 121 132 119 17 85 93 77 29 100 94 16 292 305 329 5 2 33 52 30 25 87 62 76 19 97 66 110 152 119 107 91 3 22 216 207 197 125 84 201
70 69 70 77 85 95 100 107 107 115 44 30 81 90 23 54 91 125 145 85 43 0 328 358 94 109 65 31 41 58 65 40 63 81 69 50 69 66 115 101 139 170 193 206 196 146 174
64 69 82 86 94 109 116 117 113 46 335 20 46 72 89 26 36 14 26 297 89 12 324 359 41 33 34 81 55 62 47 101 55 50 59 77 90 92 101 70 33 61 175 207 217 229 201
62 57 82 114 131 133 104 84 114 38 37 10 64 132 94 53 336 356 20 343 104 141 10 336 87 52 59 72 77 119 98 75 92 45 65 357 123 94 60 120 103 135 269 266 272 259 279
50 43 70 166 165 162 120 79 323 19 23 34 56 118 90 332 324 343 4 11 25 66 74 29 53 86 54 47 65 74 84 57 110 120 117 106 125 98 122 353 73 338 219 209 210 207 203
74 48 53 163 156 157 156 194 5 358 358 31 72 85 97 114 321 36 60 57 49 29 74 48 36 71 97 108 82 71 68 59 51 39 28 116 90 61 168 23 54 236 299 241 228 237 237
153 97 82 98 154 113 148 111 360 350 338 288 194 90 46 87 58 135 128 111 116 58 30 53 43 64 97 30 52 44 5 29 358 30 14 40 83 60 124 197 289 323 229 171 172 263 248
155 136 97 114 143 171 173 161 51 35 36 52 119 197 78 125 113 127 155 135 140 107 28 7 73 92 55 55 51 112 161 166 7 11 6 50 23 101 55 137 208 256 348 19 96 291 9
190 165 149 157 168 164 156 139 86 66 72 46 52 117 110 96 79 77 55 22 72 77 90 137 135 21 27 70 94 130 168 193 135 142 177 81 39 151 183 210 287 263 254 13 104 235 53
223 229 220 211 214 235 242 244 251 326 36 57 73 14 210 105 104 76 66 66 45 103 125 144 102 21 23 62 88 229 98 211 90 180 163 156 139 180 95 90 286 200 80 180 150 87 102
239 237 237 233 237 250 261 269 265 251 311 9 67 67 88 107 132 113 91 79 88 65 76 86 92 260 115 84 21 74 62 57 63 238 197 225 181 182 184 209 221 192 218 236 292 234 212
Wind_Speed_850mb
45 49 49 48 47 44 41 43 36 33 33 30 28 25 24 26 26 24 23 30 31 38 30 23 31 31 29 22 10 14 26 39 40 28 13 4 8 8 9 19 13 17 10 5 5 3 2
46 47 50 49 51 52 49 45 42 41 36 37 32 31 26 27 28 25 22 24 29 35 36 26 32 32 26 28 26 29 26 29 26 24 15 12 4 0 17 19 14 4 12 17 11 9 2
51 52 53 52 51 51 50 52 51 46 44 41 34 34 30 27 25 24 24 22 26 34 38 32 32 35 36 20 33 34 30 32 24 20 14 3 12 9 11 15 8 16 11 13 12 18 2
56 56 57 59 56 57 55 53 49 52 50 45 41 34 32 27 25 22 23 22 24 29 39 39 34 34 19 22 22 35 39 41 29 32 23 6 5 2 5 23 22 11 5 13 10 11 4
60 63 64 59 63 63 61 58 57 52 51 48 44 36 32 28 24 20 22 21 22 27 32 41 35 35 14 22 39 41 47 56 41 40 35 22 23 15 8 9 7 10 10 17 11 13 7
62 65 64 63 62 61 57 63 62 58 48 50 45 37 33 27 22 18 18 21 19 23 31 45 44 30 17 24 47 46 38 35 49 40 23 27 20 5 10 9 13 6 6 13 15 8 5
64 66 67 68 68 68 65 61 59 60 54 47 44 38 33 26 23 16 14 10 8 12 31 29 6 22 26 25 42 48 48 35 31 37 15 32 14 20 19 25 9 6 9 10 18 12 8
67 67 66 64 65 63 65 63 59 58 55 47 44 39 34 26 21 15 16 6 13 5 12 41 39 49 28 48 27 37 52 23 21 20 21 7 24 23 18 25 17 11 11 4 4 8 8
64 61 71 81 75 71 64 60 58 54 55 46 45 39 35 25 21 16 16 14 26 23 7 15 36 26 33 32 22 51 57 22 18 27 24 12 4 13 17 17 20 18 18 11 6 4 8
58 69 80 75 69 58 65 56 55 51 51 46 47 43 37 29 15 10 12 8 25 20 7 13 22 21 22 26 13 51 50 25 8 26 24 4 6 13 13 21 13 17 5 5 17 3 2
57 72 74 64 25 26 51 50 51 49 51 45 48 47 39 26 11 7 3 18 14 10 9 13 16 28 28 23 47 31 50 22 14 14 14 11 14 16 9 13 13 5 17 10 2 4 10
53 67 69 63 40 38 44 48 48 45 49 49 48 44 35 30 5 4 8 14 15 9 13 2 2 16 12 9 20 32 19 16 13 8 10 9 4 8 4 7 9 14 19 16 10 6 4
46 54 63 57 57 51 49 49 49 47 51 51 49 36 26 18 8 2 15 20 6 6 3 8 9 16 26 14 16 33 30 18 11 15 9 15 8 4 14 14 7 7 14 4 4 2 8
45 45 52 54 54 54 51 51 51 45 58 52 47 42 29 21 7 13 17 3 8 4 7 5 2 22 9 27 15 30 29 19 12 9 13 14 7 13 7 8 15 17 11 8 11 8 5
45 39 41 48 52 50 49 54 46 54 59 51 42 33 22 11 9 14 7 5 4 5 8 13 6 17 11 6 15 25 33 29 12 12 8 10 8 6 13 5 18 11 10 5 9 3 6
45 45 40 37 45 48 47 51 58 55 50 43 41 25 19 12 14 1 2 3 4 3 8 6 1 4 9 4 24 21 29 17 12 5 7 5 11 8 5 5 10 6 12 7 5 7 5
44 46 48 50 45 41 46 47 47 46 38 30 24 10 7 14 8 5 3 6 7 10 6 8 11 6 10 6 11 11 10 8 4 10 4 10 9 7 10 7 13 6 8 3 8 3 6
42 42 41 41 40 43 41 37 36 34 31 15 10 6 8 10 5 3 2 3 9 8 9 6 8 10 11 12 8 9 9 6 8 15 11 6 9 8 7 7 9 9 12 7 7 6 3
38 41 39 38 37 34 31 29 27 26 11 6 8 7 4 9 1 3 0 3 4 8 12 7 12 15 10 8 6 8 9 18 22 10 6 4 5 10 7 8 5 4 8 5 10 5 10
34 34 35 32 30 29 29 32 21 14 10 3 5 3 2 7 8 5 7 2 4 6 7 9 3 4 6 10 16 8 8 17 27 16 20 14 7 5 6 7 3 10 14 14 8 6 6
23 25 23 22 22 22 20 14 11 7 5 11 7 3 2 4 5 5 6 3 5 8 9 14 8 14 8 6 7 9 8 12 17 10 10 6 7 7 15 9 10 7 9 16 19 12 7
17 13 12 15 17 14 7 5 9 12 12 10 5 6 8 3 8 6 3 6 5 7 9 9 13 19 18 11 9 8 4 11 7 12 6 5 5 4 6 10 9 2 8 10 9 9 11
17 17 4 14 15 11 4 1 4 9 18 9 7 11 6 4 2 4 7 6 10 7 15 19 9 18 23 20 30 35 37 31 16 10 6 5 7 3 4 7 4 9 13 20 12 12 13
15 20 16 13 12 10 6 3 8 10 12 13 7 7 4 4 1 5 7 9 13 18 7 19 28 11 5 18 19 32 39 41 36 26 22 11 7 4 4 5 1 10 4 5 17 18 19
11 11 16 13 12 8 3 2 6 12 12 8 5 6 6 4 2 6 3 12 15 15 16 21 21 18 9 9 7 9 9 11 12 13 14 13 6 5 8 5 9 11 8 10 11 12 10
6 5 8 13 10 7 6 2 4 10 15 12 4 1 5 10 3 3 4 5 6 6 5 11 11 14 9 6 6 5 5 6 0 8 11 6 10 7 4 7 12 5 5 9 13 8 13
7 6 5 6 8 7 6 4 5 9 11 8 6 3 3 10 5 4 5 5 7 7 7 7 4 6 9 2 4 4 5 3 5 11 8 5 4 9 5 3 13 11 6 6 11 8 8
14 11 8 8 8 10 11 11 10 5 11 10 6 2 3 10 9 8 8 8 7 4 5 12 8 3 6 5 4 1 4 6 4 4 11 11 10 6 2 3 15 19 7 12 4 7 8
20 19 16 14 13 12 13 14 19 15 5 6 6 6 4 7 10 13 17 13 10 12 9 6 5 1 4 6 4 5 4 4 2 3 3 5 11 9 15 12 6 15 11 10 10 3 7
Wind_Direction_850mb
292 287 283 279 275 276 273 265 264 255 261 263 259 262 262 258 263 272 281 250 240 242 247 243 235 229 227 216 216 155 178 195 192 184 202 173 173 169 276 293 235 242 118 137 241 192 320
300 295 290 284 277 271 265 263 260 257 254 258 252 253 260 258 262 269 284 275 246 238 240 248 234 220 218 214 214 153 151 178 166 165 183 184 167 171 303 293 336 296 185 138 161 116 353
301 294 287 283 279 272 267 261 256 254 250 249 248 245 253 256 253 266 276 273 257 232 240 241 235 225 236 220 205 192 181 187 205 200 187 116 210 165 338 286 301 259 155 143 155 150 161
303 296 289 282 273 270 266 260 256 252 249 242 245 242 243 250 244 267 267 260 251 237 235 237 239 220 250 248 205 207 195 194 196 195 169 155 138 274 243 307 305 233 197 151 118 164 243
300 297 294 287 278 267 260 256 253 250 245 240 237 238 237 244 243 265 268 252 244 251 230 240 240 201 226 196 207 202 198 199 180 199 186 197 175 196 165 252 193 274 182 146 120 16 145
305 301 296 290 282 272 263 253 247 245 239 236 233 230 230 235 239 255 264 245 243 261 229 241 254 197 216 206 198 195 181 189 178 192 194 197 193 221 159 223 185 213 218 124 116 28 343
310 307 299 290 278 268 261 252 244 236 234 232 225 220 221 225 230 247 250 275 264 259 233 211 297 201 201 180 182 187 186 177 184 164 182 200 186 191 219 190 232 276 353 354 61 35 39
317 311 305 295 282 269 256 244 236 229 225 223 215 209 212 215 221 238 224 214 272 240 271 262 257 207 175 165 159 182 185 168 166 175 167 151 211 193 92 140 149 159 173 291 331 23 356
327 324 318 304 286 261 245 235 225 221 215 211 203 198 201 202 212 230 233 259 262 275 310 286 208 195 183 180 174 176 181 168 184 174 172 185 162 192 168 216 163 169 198 200 293 143 207
339 337 331 321 287 249 224 216 211 207 201 198 193 188 190 192 204 226 259 284 246 257 262 197 179 200 198 176 154 175 174 162 199 196 158 228 153 154 173 181 182 181 197 122 173 199 189
357 359 1 1 51 169 183 187 192 189 183 186 179 180 186 171 163 151 221 226 230 175 272 122 155 168 191 180 136 181 174 184 203 191 148 151 155 157 156 173 176 121 101 172 243 22 1
11 20 25 36 67 116 148 163 167 165 166 169 168 172 175 180 140 237 259 196 140 126 249 197 335 159 184 159 176 144 162 166 189 75 93 96 87 104 141 86 119 139 109 97 76 34 267
24 30 37 52 75 100 122 137 147 152 157 152 154 164 153 168 153 69 156 143 139 221 307 165 204 144 177 163 144 161 168 174 149 140 156 120 93 72 142 95 103 160 142 97 76 147 220
35 39 44 61 83 98 113 124 134 144 155 158 155 164 164 161 145 155 164 117 222 230 294 322 220 116 142 173 143 165 160 168 182 192 144 150 156 192 175 161 165 186 184 158 171 182 207
38 45 55 70 87 100 108 118 126 136 138 146 157 156 144 123 155 150 163 226 65 324 312 330 86 165 174 229 150 148 178 176 176 198 143 146 88 146 148 79 138 185 213 16 98 45 69
49 54 65 77 92 102 109 121 127 130 140 151 147 123 88 124 154 79 70 33 47 284 330 263 102 318 151 287 132 152 168 167 131 218 13 97 118 140 56 84 66 136 134 80 345 131 203
58 63 75 87 97 102 110 119 125 134 143 150 144 86 118 120 126 31 359 11 320 23 2 324 11 29 62 175 124 113 122 51 229 111 15 111 114 137 136 240 153 130 158 157 135 112 168
67 71 75 82 88 107 111 117 127 136 143 154 100 76 115 94 47 72 79 318 340 323 279 338 2 48 30 8 70 110 119 104 245 118 94 14 103 123 121 8 355 218 161 144 128 241 238
69 73 77 84 95 103 110 116 121 132 119 17 85 93 77 29 100 94 16 292 305 329 5 2 33 52 30 25 87 62 76 19 97 66 110 152 119 107 91 3 22 216 207 197 125 84 201
70 69 70 77 85 95 100 107 107 115 44 30 81 90 23 54 91 125 145 85 43 0 328 358 94 109 65 31 41 58 65 40 63 81 69 50 69 66 115 101 139 170 193 206 196 146 174
64 69 82 86 94 109 116 117 113 46 335 20 46 72 89 26 36 14 26 297 89 12 324 359 41 33 34 81 55 62 47 101 55 50 59 77 90 92 101 70 33 61 175 207 217 229 201
62 57 82 114 131 133 104 84 114 38 37 10 64 132 94 53 336 356 20 343 104 141 10 336 87 52 59 72 77 119 98 75 92 45 65 357 123 94 60 120 103 135 269 266 272 259 279
50 43 70 166 165 162 120 79 323 19 23 34 56 118 90 332 324 343 4 11 25 66 74 29 53 86 54 47 65 74 84 57 110 120 117 106 125 98 122 353 73 338 219 209 210 207 203
74 48 53 163 156 157 156 194 5 358 358 31 72 85 97 114 321 36 60 57 49 29 74 48 36 71 97 108 82 71 68 59 51 39 28 116 90 61 168 23 54 236 299 241 228 237 237
153 97 82 98 154 113 148 111 360 350 338 288 194 90 46 87 58 135 128 111 116 58 30 53 43 64 97 30 52 44 5 29 358 30 14 40 83 60 124 197 289 323 229 171 172 263 248
155 136 97 114 143 171 173 161 51 35 36 52 119 197 78 125 113 127 155 135 140 107 28 7 73 92 55 55 51 112 161 166 7 11 6 50 23 101 55 137 208 256 348 19 96 291 9
190 165 149 157 168 164 156 139 86 66 72 46 52 117 110 96 79 77 55 22 72 77 90 137 135 21 27 70 94 130 168 193 135 142 177 81 39 151 183 210 287 263 254 13 104 235 53
223 229 220 211 214 235 242 244 251 326 36 57 73 14 210 105 104 76 66 66 45 103 125 144 102 21 23 62 88 229 98 211 90 180 163 156 139 180 95 90 286 200 80 180 150 87 102
239 237 237 233 237 250 261 269 265 251 311 9 67 67 88 107 132 113 91 79 88 65 76 86 92 260 115 84 21 74 62 57 63 238 197 225 181 182 184 209 221 192 218 236 292 234 212